Regional Weather Roundup
Issued by NWS Goodland, KS

Home | Current Version | Previous Version | Graphics & Text | Print | Product List | Glossary On
Versions: 1 2 3 4 5 6 7 8 9 10 11 12 13 14 15 16 17 18 19 20 21 22 23 24 25 26 27 28 29 30 31 32 33 34 35 36 37 38 39 40 41 42 43 44 45 46 47 48 49 50
000
ASUS43 KGLD 112259
RWRGLD

GOODLAND FORECAST AREA HOURLY WEATHER ROUNDUP
NATIONAL WEATHER SERVICE GOODLAND KS
400 PM MST THU FEB 11 2016

...OFFICIAL OBSERVATIONS...

CITY           SKY/WX    TMP DP  RH WIND       PRES   REMARKS
GOODLAND KS    CLOUDY    54  30  40 N10       30.11R
HILL CITY KS   SUNNY     53  36  52 CALM      30.07S
IMPERIAL NEB   CLOUDY    52  33  48 NW12      30.08R
MCCOOK NEB     CLOUDY    48  32  53 N3        30.07R
AKRON CO       CLOUDY    53  28  38 N8        30.14R
BURLINGTON CO  CLOUDY    54  29  38 N12       30.13R
LIMON CO       CLOUDY    50  28  42 CALM      30.17R
$$

...UNOFFICIAL OBSERVATIONS...

CITY           SKY/WX    TMP DP  RH WIND       PRES   REMARKS
COLBY KS       SUNNY     48  37  66 NW9       30.10R
GOVE KS          N/A     63  32  31 MISG        N/A
LENORA KS        N/A     49  32  52 MISG        N/A
NORTON KS      SUNNY     43  30  61 CALM      30.08R
SHARON SPRINGS   N/A     62  29  29 NW18        N/A
KIT CARSON CO    N/A     61  27  27 MISG        N/A
YUMA CO          N/A     53  34  49 N7          N/A
$$



USA.gov is the U.S. government's official web portal to all federal, state and local government web resources and services.